[[{"header":{"parameterUnit":"m.s-1","parameterCategory":1,"la1":30.2991,"la2":30.254,"lo1":-89.0895,"lo2":-89.0444,"dy":0.0017,"dx":0.0017,"nx":28,"ny":28,"refTime":"2024-12-09T03:00:00:Z","depth":0,"parameterNumber":2,"parameterNumberName":"U-component_of_WINDS"},"data":[0,0,0,0,0,0,0,0,0,0,0,0,0,0,0,0,0,0,0,0,0,0,0,0,0,0,0,0,0,0,0,0,0,0,0,0,0,0,0,0,0,0,0,0,0,0,0,0,0,0,0,0,0,0,0,0,0,0,1.4486,1.4487,0,1.4623,1.4625,1.4627,1.462,1.4618,1.4616,1.4614,1.4768,1.4774,1.478,0,0,0,0,0,0,0,0,0,0,0,0,0,1.4231,1.4235,1.4486,1.4488,1.4489,1.4623,1.4625,1.4627,1.462,1.4618,1.4615,1.4613,1.4766,1.4773,1.478,0,0,0,0,0,0,0,0,0,0,0,0,0,1.4352,1.4237,1.4486,1.4502,1.4505,1.4623,1.4625,1.4627,1.4621,1.4618,1.4615,1.4612,1.4764,1.4773,1.4781,1.4897,0,0,1.4809,1.4813,0,0,0,0,0,0,0,0,1.4346,1.4362,1.4498,1.4501,1.4504,1.4601,1.4591,1.4718,1.4622,1.4577,1.4614,1.461,1.4716,1.4729,1.4761,1.4904,1.491,1.481,1.4815,1.4819,1.4821,0,0,0,0,0,0,0,1.4337,1.4356,1.4541,1.45,1.4504,1.4506,1.452,1.4615,1.4662,1.4581,1.458,1.4596,1.4717,1.4753,1.4765,1.4913,1.4809,1.4817,1.4823,1.4826,1.5159,1.5162,0,0,0,0,0,0,1.4323,1.4349,1.4536,1.4545,1.4415,1.4513,1.4529,1.4573,1.4661,1.4671,1.4599,1.4595,1.4739,1.4755,1.477,1.4912,1.4819,1.4827,1.4832,1.5155,1.5159,1.5163,0,0,0,0,0,0,1.4318,1.434,1.4531,1.4447,1.4471,1.4521,1.4571,1.4578,1.4613,1.4674,1.4684,1.4625,1.4737,1.4758,1.4865,1.4917,1.4831,1.4839,1.5151,1.5156,1.5161,1.5195,0,0,0,0,0,0,1.431,1.4338,1.4379,1.4448,1.4476,1.4619,1.4574,1.4582,1.4627,1.4624,1.4702,1.4712,1.4736,1.4851,1.4873,1.4928,1.4846,1.5147,1.5153,1.516,1.5189,1.52,1.521,0,0,0,0,0,1.4301,1.4386,1.4381,1.4404,1.4527,1.4622,1.4638,1.466,1.4631,1.4675,1.4714,1.471,1.4907,1.4862,1.4887,1.4945,1.5143,1.5152,1.5159,1.5185,1.5198,1.521,0,0,0,0,0,0,1.4327,1.4395,1.4391,1.4499,1.4554,1.462,1.4676,1.4674,1.4742,1.4737,1.4766,1.4784,1.4891,1.4929,1.4878,1.5062,1.5022,1.5035,1.5033,1.5047,1.5057,1.5046,1.4854,0,0,0,0,0,1.4344,1.4411,1.4469,1.4559,1.4586,1.4626,1.4668,1.468,1.4741,1.4765,1.4813,1.4875,1.4951,1.5001,1.5075,1.5194,1.5213,1.5247,1.5257,1.5265,1.5277,1.5345,1.5361,1.5189,1.5189,1.5188,0,0,1.4383,1.4428,1.4469,1.4565,1.4609,1.4681,1.4646,1.4724,1.4779,1.4779,1.4881,1.4918,1.499,1.5104,1.5157,1.5139,1.5329,1.5275,1.5281,1.5289,1.5355,1.5371,1.5386,1.5194,1.5193,1.5192,0,0,1.4489,1.4529,1.4608,1.4652,1.4718,1.4744,1.4763,1.483,1.4853,1.4956,1.4957,1.5025,1.5155,1.5206,1.525,1.5376,1.5375,1.5399,1.5454,1.552,1.5534,1.5546,1.5593,1.5609,1.541,1.5411,1.5411,0,1.4529,1.4634,1.4651,1.4728,1.4772,1.477,1.4853,1.4897,1.4985,1.5017,1.4995,1.5158,1.5206,1.5333,1.5363,1.5398,1.5424,1.5391,1.553,1.5542,1.5554,1.5599,1.5616,1.5413,1.5413,1.5413,1.5412,0,1.4681,1.4754,1.4811,1.4891,1.4942,1.5022,1.5055,1.5105,1.5113,1.5143,1.5249,1.5306,1.5391,1.5422,1.5433,1.5552,1.5538,1.5522,1.5483,1.5573,1.5615,1.5633,1.5417,1.5416,1.5415,1.5414,0,0,1.4808,1.4895,1.4916,1.4953,1.5025,1.5084,1.5166,1.5245,1.5288,1.535,1.5421,1.5531,1.5517,1.5566,1.5582,1.564,1.5738,1.5618,1.562,1.5639,1.5875,1.5886,1.5906,1.5737,1.574,1.5743,1.5869,0,1.4922,1.5062,1.508,1.5206,1.5275,1.5275,1.5346,1.5401,1.5431,1.5498,1.5534,1.5611,1.5585,1.5615,1.5672,1.5714,1.5786,1.5705,1.5808,1.5811,1.579,1.5928,1.5941,1.6057,1.5886,1.5888,1.589,0,1.5075,1.5135,1.5267,1.533,1.536,1.5423,1.5498,1.556,1.5624,1.5642,1.5696,1.5705,1.5794,1.575,1.5875,1.582,1.5864,1.5891,1.5896,1.5907,1.5857,1.5945,1.6094,1.6112,1.5917,1.5915,1.5913,0,1.5155,1.5271,1.5364,1.5396,1.5472,1.5516,1.5551,1.5611,1.5657,1.5724,1.5756,1.5834,1.5877,1.5939,1.5971,1.5935,1.6095,1.6053,1.6116,1.6115,1.6151,1.6148,1.631,1.6177,1.6176,1.6176,1.6176,0,1.5282,1.5363,1.5401,1.5459,1.5551,1.5573,1.5665,1.5699,1.5752,1.5819,1.5825,1.589,1.5926,1.5998,1.6024,1.6125,1.6144,1.6164,1.6171,1.6164,1.6162,1.6194,1.6188,1.6181,1.618,1.6179,1.6178,0,1.5388,1.5416,1.5518,1.5581,1.5598,1.5664,1.5719,1.5778,1.5807,1.5893,1.5914,1.5962,1.6046,1.6083,1.6188,1.6206,1.6321,1.6321,1.6298,1.6301,1.6362,1.6356,1.6552,1.6579,1.6426,1.6427,1.6429,0,1.5467,1.5528,1.5596,1.5639,1.5674,1.5745,1.5791,1.5816,1.5866,1.5942,1.5992,1.6075,1.6143,1.6278,1.6325,1.6406,1.6409,1.6472,1.6421,1.6413,1.6412,1.6408,1.6415,1.6481,1.6483,1.6484,1.6485,0,1.5605,1.5616,1.568,1.575,1.5805,1.5862,1.5919,1.5955,1.599,1.6046,1.6129,1.6181,1.6286,1.637,1.6453,1.6494,1.6497,1.65,1.6519,1.6514,1.6499,1.6509,1.6325,1.6496,1.6495,1.6494,1.6494,1.6493,1.5701,1.5756,1.5812,1.5884,1.5929,1.5981,1.6039,1.6074,1.6142,1.6227,1.6239,1.6329,1.6393,1.6504,1.6548,1.6622,1.6607,1.6634,1.6642,1.6648,1.6652,1.6485,1.6637,1.6637,1.6637,1.6637,1.6636,0,1.5841,1.5876,1.5942,1.6019,1.6077,1.6069,1.6132,1.6182,1.6259,1.6316,1.6382,1.6479,1.656,1.6613,1.6696,1.6745,1.6749,1.6766,1.6764,1.6773,1.666,1.6636,1.6762,1.6762,1.6762,1.6762,1.6762,1.6761,1.592,1.6013,1.6031,1.6147,1.6183,1.6267,1.6304,1.6354,1.6399,1.6506,1.6571,1.6603,1.6661,1.6748,1.6823,1.6837,1.6868,1.6887,1.6901,1.6794,1.6781,1.6769,1.6746,1.6893,1.6893,1.7008,1.7009,1.7009]},{"header":{"parameterUnit":"m.s-1","parameterCategory":1,"la1":30.2991,"la2":30.254,"lo1":-89.0895,"lo2":-89.0444,"dy":0.0017,"dx":0.0017,"nx":28,"ny":28,"refTime":"2024-12-09T03:00:00:Z","depth":0,"parameterNumber":3,"parameterNumberName":"V-component_of_WINDS"},"data":[0,0,0,0,0,0,0,0,0,0,0,0,0,0,0,0,0,0,0,0,0,0,0,0,0,0,0,0,0,0,0,0,0,0,0,0,0,0,0,0,0,0,0,0,0,0,0,0,0,0,0,0,0,0,0,0,0,0,2.3696,2.3698,0,2.3862,2.3864,2.3865,2.3865,2.3862,2.386,2.3858,2.4033,2.4039,2.4046,0,0,0,0,0,0,0,0,0,0,0,0,0,2.3382,2.3388,2.3696,2.3698,2.37,2.3861,2.3864,2.3866,2.3865,2.3862,2.386,2.3857,2.403,2.4038,2.4046,0,0,0,0,0,0,0,0,0,0,0,0,0,2.353,2.339,2.3695,2.3719,2.3722,2.3861,2.3864,2.3867,2.3866,2.3862,2.3859,2.3856,2.4028,2.4038,2.4047,2.4175,0,0,2.4078,2.4082,0,0,0,0,0,0,0,0,2.3522,2.3542,2.3713,2.3717,2.3722,2.3839,2.3817,2.397,2.3866,2.3811,2.3858,2.3854,2.3971,2.3986,2.4024,2.4183,2.4191,2.4079,2.4085,2.4089,2.4092,0,0,0,0,0,0,0,2.3512,2.3535,2.3761,2.3716,2.3721,2.3722,2.374,2.3846,2.3908,2.3816,2.3816,2.3836,2.3973,2.4014,2.4028,2.4193,2.4079,2.4088,2.4094,2.4098,2.4467,2.447,0,0,0,0,0,0,2.3496,2.3526,2.3756,2.3766,2.3611,2.3731,2.375,2.3805,2.3907,2.3919,2.3838,2.3835,2.3999,2.4016,2.4034,2.4192,2.4089,2.4099,2.4104,2.4463,2.4467,2.4472,0,0,0,0,0,0,2.3489,2.3516,2.375,2.3646,2.3676,2.3739,2.3801,2.381,2.3851,2.3923,2.3935,2.3869,2.3997,2.402,2.414,2.4198,2.4103,2.4112,2.4458,2.4464,2.447,2.4507,0,0,0,0,0,0,2.348,2.3514,2.3562,2.3647,2.3682,2.3851,2.3804,2.3815,2.3868,2.3865,2.3955,2.3967,2.3996,2.4125,2.415,2.421,2.412,2.4454,2.4461,2.4468,2.4501,2.4513,2.4524,0,0,0,0,0,2.3469,2.3567,2.3565,2.3592,2.3743,2.3855,2.3874,2.3905,2.3873,2.3923,2.3969,2.3964,2.4187,2.4137,2.4165,2.4229,2.445,2.4459,2.4467,2.4496,2.4511,2.4524,0,0,0,0,0,0,2.3489,2.3579,2.3577,2.3705,2.3772,2.3854,2.3918,2.3919,2.3998,2.3992,2.4027,2.4048,2.4168,2.421,2.4153,2.4359,2.4315,2.4329,2.4327,2.4342,2.4353,2.4342,2.4128,0,0,0,0,0,2.3507,2.3589,2.3664,2.377,2.3803,2.3855,2.3905,2.3922,2.3993,2.4022,2.4077,2.4148,2.4234,2.429,2.4373,2.4506,2.4527,2.4564,2.4575,2.4584,2.4598,2.4673,2.4691,2.45,2.45,2.4499,0,0,2.3548,2.3607,2.3657,2.3775,2.3829,2.3915,2.3879,2.3971,2.4035,2.4036,2.4153,2.4196,2.4277,2.4405,2.4464,2.4444,2.4655,2.4595,2.4602,2.461,2.4684,2.4702,2.4718,2.4505,2.4504,2.4503,0,0,2.3667,2.3718,2.3813,2.3867,2.3949,2.3982,2.4005,2.4087,2.4115,2.4232,2.4235,2.4313,2.4459,2.4518,2.4566,2.4706,2.4706,2.4732,2.4793,2.4866,2.4881,2.4895,2.4947,2.4965,2.4744,2.4744,2.4744,0,2.3708,2.3835,2.3862,2.3955,2.4007,2.401,2.4107,2.4159,2.4264,2.4301,2.4276,2.4461,2.4516,2.4658,2.4692,2.473,2.4759,2.4723,2.4876,2.489,2.4903,2.4954,2.4973,2.4747,2.4746,2.4746,2.4746,0,2.3883,2.3971,2.4038,2.4138,2.4198,2.4292,2.4335,2.4392,2.4403,2.444,2.456,2.4625,2.4722,2.4756,2.4769,2.4901,2.4886,2.4868,2.4826,2.4924,2.4972,2.4991,2.4751,2.475,2.4749,2.4748,0,0,2.4021,2.4133,2.4157,2.4203,2.4293,2.4363,2.4457,2.455,2.46,2.4672,2.4754,2.4877,2.4861,2.4917,2.4935,2.4999,2.5108,2.4974,2.4977,2.4999,2.526,2.5275,2.5296,2.5107,2.5111,2.5114,2.5254,0,2.415,2.4318,2.4344,2.4492,2.4575,2.4578,2.4661,2.4726,2.4762,2.4839,2.4879,2.4967,2.4938,2.4972,2.5035,2.5081,2.5161,2.5071,2.5186,2.519,2.5168,2.5321,2.5337,2.5467,2.5273,2.5276,2.5278,0,2.4325,2.44,2.4556,2.4634,2.467,2.4744,2.4832,2.4905,2.4978,2.5,2.5061,2.5073,2.5173,2.5123,2.5262,2.52,2.5248,2.5278,2.5284,2.5298,2.5242,2.5342,2.5508,2.5529,2.5307,2.5305,2.5303,0,2.4413,2.4553,2.4665,2.4703,2.4797,2.4849,2.4891,2.4961,2.5016,2.5093,2.5129,2.5216,2.5265,2.5334,2.5369,2.5329,2.5507,2.5459,2.553,2.5529,2.557,2.5568,2.5749,2.5596,2.5596,2.5595,2.5595,0,2.4557,2.4653,2.4706,2.4775,2.4882,2.4912,2.5018,2.5059,2.5121,2.5199,2.5207,2.528,2.5321,2.54,2.5428,2.5541,2.5562,2.5584,2.5591,2.5586,2.5583,2.562,2.5613,2.56,2.5599,2.5598,2.5597,0,2.4675,2.4714,2.4836,2.4914,2.4936,2.5013,2.508,2.5148,2.5183,2.5282,2.5307,2.5362,2.5457,2.5497,2.5614,2.5632,2.5762,2.5761,2.5737,2.574,2.581,2.5804,2.6024,2.6055,2.5878,2.588,2.5881,0,2.4766,2.484,2.4926,2.4978,2.5021,2.5105,2.516,2.5191,2.5249,2.5338,2.5396,2.549,2.5567,2.5717,2.5769,2.5859,2.5862,2.5932,2.5875,2.5868,2.5866,2.5863,2.5871,2.5944,2.5946,2.5947,2.5948,0,2.4925,2.494,2.5018,2.5104,2.517,2.5239,2.5307,2.5349,2.5392,2.5456,2.5552,2.5611,2.5729,2.5824,2.5916,2.596,2.5963,2.5965,2.5987,2.5983,2.5968,2.598,2.5769,2.5961,2.596,2.5959,2.5958,2.5958,2.5034,2.51,2.5171,2.5258,2.5312,2.5375,2.5443,2.5486,2.5566,2.5664,2.5677,2.578,2.5852,2.5976,2.6024,2.6106,2.6089,2.6119,2.6128,2.6136,2.6142,2.5952,2.6123,2.6122,2.6122,2.6122,2.6122,0,2.5195,2.524,2.532,2.5414,2.5484,2.5476,2.5551,2.561,2.57,2.5766,2.5842,2.5952,2.6043,2.6101,2.6194,2.6248,2.6252,2.6272,2.627,2.6281,2.615,2.6124,2.6267,2.6267,2.6267,2.6267,2.6267,2.6267,2.5287,2.5399,2.5423,2.5562,2.5607,2.5707,2.575,2.5809,2.5862,2.5985,2.606,2.6096,2.616,2.6257,2.634,2.6355,2.639,2.6412,2.6426,2.6304,2.6289,2.6275,2.625,2.6418,2.6419,2.655,2.6551,2.6552]}]]